Вернуться в каталог

SIRIUS W

MARCOPOLO 1

АктивенСвязьGEO
NORAD 20193·PAYLOAD·🇸🇪 Sweden

Запущен Aug 27, 1989 с Cape Canaveral Space Force Station

Loading…

TLE

СвежийSource: Space-Track

Эпоха: Sep 14, 2026, 13:39 UTC

1 20193U 89067A   26257.56902231 -.00000273  00000-0  00000-0 0  9998
2 20193  14.8473 359.6813 0003231  64.4142 296.7841  0.99189856 47710

Отслеживайте SIRIUS W в реальном времени с AllMySat

Download on the App Store